Time,TemperatureF,DewpointF,PressureIn,WindDirection,WindDirectionDegrees,WindSpeedMPH,WindSpeedGustMPH,Humidity,HourlyPrecipIn,Conditions,Clouds,dailyrainin,SoftwareType,DateUTC
2014-01-09 00:01:00,-18.5,-23.0,30.42,WSW,242,0.0,2.0,79,0.00,,SKC,0.00,VWS V14.01,2014-01-09 06:01:00,
2014-01-09 00:06:00,-18.7,-23.2,30.41,WSW,242,0.0,0.0,79,0.00,,SKC,0.00,VWS V14.01,2014-01-09 06:06:00,
2014-01-09 00:11:00,-18.9,-23.4,30.41,WSW,242,0.0,0.0,79,0.00,,SKC,0.00,VWS V14.01,2014-01-09 06:11:00,
2014-01-09 00:16:00,-19.1,-23.6,30.40,WSW,242,0.0,0.0,79,0.00,,SKC,0.00,VWS V14.01,2014-01-09 06:16:00,
2014-01-09 00:21:00,-19.2,-23.7,30.40,WSW,242,0.0,0.0,79,0.00,,SKC,0.00,VWS V14.01,2014-01-09 06:21:00,
2014-01-09 00:26:00,-19.4,-24.1,30.40,WSW,242,0.0,0.0,78,0.00,,SKC,0.00,VWS V14.01,2014-01-09 06:26:00,
2014-01-09 00:30:00,-19.6,-24.3,30.40,WSW,242,0.0,0.0,78,0.00,,SKC,0.00,VWS V14.01,2014-01-09 06:30:00,
2014-01-09 00:31:00,-19.6,-24.3,30.40,WSW,242,0.0,0.0,78,0.00,,SKC,0.00,VWS V14.01,2014-01-09 06:31:00,
2014-01-09 00:36:00,-19.6,-24.1,30.40,WSW,242,0.0,0.0,79,0.00,,SKC,0.00,VWS V14.01,2014-01-09 06:36:00,
2014-01-09 00:41:00,-19.9,-24.6,30.40,WSW,242,0.0,0.0,78,0.00,,SKC,0.00,VWS V14.01,2014-01-09 06:41:00,
2014-01-09 00:46:00,-19.9,-24.6,30.40,WSW,242,0.0,0.0,78,0.00,,SKC,0.00,VWS V14.01,2014-01-09 06:46:00,
2014-01-09 00:51:00,-19.6,-24.1,30.40,WSW,242,0.0,0.0,79,0.00,,SKC,0.00,VWS V14.01,2014-01-09 06:51:00,
2014-01-09 00:56:00,-19.6,-24.1,30.40,WSW,242,0.0,0.0,79,0.00,,SKC,0.00,VWS V14.01,2014-01-09 06:56:00,
2014-01-09 01:00:00,-19.6,-24.1,30.40,WSW,242,0.0,1.0,79,0.00,,SKC,0.00,VWS V14.01,2014-01-09 07:00:00,
2014-01-09 01:01:00,-19.6,-24.1,30.40,WSW,242,0.0,1.0,79,0.00,,SKC,0.00,VWS V14.01,2014-01-09 07:01:00,
2014-01-09 01:07:00,-19.6,-24.1,30.40,WSW,242,0.0,0.0,79,0.00,,SKC,0.00,VWS V14.01,2014-01-09 07:07:00,
2014-01-09 01:12:00,-19.9,-24.6,30.40,WSW,242,0.0,0.0,78,0.00,,SKC,0.00,VWS V14.01,2014-01-09 07:12:00,
2014-01-09 01:17:00,-20.1,-24.8,30.40,WSW,242,0.0,0.0,78,0.00,,SKC,0.00,VWS V14.01,2014-01-09 07:17:00,
2014-01-09 01:22:00,-20.1,-24.8,30.40,WSW,242,0.0,0.0,78,0.00,,SKC,0.00,VWS V14.01,2014-01-09 07:22:00,
2014-01-09 01:27:00,-19.9,-24.4,30.39,WSW,242,0.0,0.0,79,0.00,,SKC,0.00,VWS V14.01,2014-01-09 07:27:00,
2014-01-09 01:30:00,-19.9,-24.4,30.39,WSW,242,0.0,0.0,79,0.00,,SKC,0.00,VWS V14.01,2014-01-09 07:30:00,
2014-01-09 01:32:00,-19.9,-24.4,30.39,WSW,242,0.0,0.0,79,0.00,,SKC,0.00,VWS V14.01,2014-01-09 07:32:00,
2014-01-09 01:37:00,-19.9,-24.4,30.39,WSW,242,0.0,0.0,79,0.00,,SKC,0.00,VWS V14.01,2014-01-09 07:37:00,
2014-01-09 01:42:00,-20.0,-24.7,30.39,WSW,242,0.0,0.0,78,0.00,,SKC,0.00,VWS V14.01,2014-01-09 07:42:00,
2014-01-09 01:47:00,-19.6,-24.1,30.39,WSW,242,0.0,4.0,79,0.00,,SKC,0.00,VWS V14.01,2014-01-09 07:47:00,
2014-01-09 01:52:00,-19.6,-24.1,30.38,WSW,242,0.0,4.0,79,0.00,,SKC,0.00,VWS V14.01,2014-01-09 07:52:00,
2014-01-09 01:57:00,-19.8,-24.3,30.38,WSW,242,1.0,4.0,79,0.00,,SKC,0.00,VWS V14.01,2014-01-09 07:57:00,
2014-01-09 02:00:00,-19.9,-24.4,30.38,WSW,242,0.0,4.0,79,0.00,,SKC,0.00,VWS V14.01,2014-01-09 08:00:00,
2014-01-09 02:02:00,-19.9,-24.4,30.38,WSW,242,0.0,0.0,79,0.00,,SKC,0.00,VWS V14.01,2014-01-09 08:02:00,
2014-01-09 02:07:00,-19.7,-24.2,30.38,WSW,242,1.0,2.0,79,0.00,,SKC,0.00,VWS V14.01,2014-01-09 08:07:00,
2014-01-09 02:12:00,-19.0,-23.5,30.37,WSW,242,1.0,2.0,79,0.00,,SKC,0.00,VWS V14.01,2014-01-09 08:12:00,
2014-01-09 02:17:00,-18.3,-22.8,30.37,SW,236,0.0,4.0,79,0.00,,SKC,0.00,VWS V14.01,2014-01-09 08:17:00,
2014-01-09 02:22:00,-18.1,-22.6,30.37,SW,236,0.0,4.0,79,0.00,,SKC,0.00,VWS V14.01,2014-01-09 08:22:00,
2014-01-09 02:27:00,-18.2,-22.7,30.36,SW,224,2.0,4.0,79,0.00,,SKC,0.00,VWS V14.01,2014-01-09 08:27:00,
2014-01-09 02:30:00,-17.8,-22.3,30.36,SW,217,1.0,4.0,79,0.00,,SKC,0.00,VWS V14.01,2014-01-09 08:30:00,
2014-01-09 02:32:00,-17.6,-22.1,30.37,SW,217,1.0,1.0,79,0.00,,SKC,0.00,VWS V14.01,2014-01-09 08:32:00,
2014-01-09 02:37:00,-16.9,-21.2,30.36,SW,216,1.0,2.0,80,0.00,,SKC,0.00,VWS V14.01,2014-01-09 08:37:00,
2014-01-09 02:42:00,-16.2,-20.5,30.36,SW,216,0.0,2.0,80,0.00,,SKC,0.00,VWS V14.01,2014-01-09 08:42:00,
2014-01-09 02:47:00,-15.3,-19.4,30.36,SW,216,0.0,2.0,81,0.00,,SKC,0.00,VWS V14.01,2014-01-09 08:47:00,
2014-01-09 02:52:00,-14.9,-19.0,30.35,SW,216,2.0,2.0,81,0.00,,SKC,0.00,VWS V14.01,2014-01-09 08:52:00,
2014-01-09 02:57:00,-14.5,-18.6,30.35,SSW,209,2.0,4.0,81,0.00,,SKC,0.00,VWS V14.01,2014-01-09 08:57:00,
2014-01-09 03:00:00,-13.9,-18.0,30.35,SSW,198,5.0,5.0,81,0.00,,SKC,0.00,VWS V14.01,2014-01-09 09:00:00,
2014-01-09 03:02:00,-13.8,-17.9,30.35,South,188,4.0,5.0,81,0.00,,SKC,0.00,VWS V14.01,2014-01-09 09:02:00,
2014-01-09 03:07:00,-12.7,-16.9,30.35,South,174,1.0,5.0,81,0.00,,SKC,0.00,VWS V14.01,2014-01-09 09:07:00,
2014-01-09 03:12:00,-11.9,-15.8,30.34,South,173,1.0,5.0,82,0.00,,SKC,0.00,VWS V14.01,2014-01-09 09:12:00,
2014-01-09 03:17:00,-11.3,-15.2,30.34,SSE,156,0.0,6.0,82,0.00,,SKC,0.00,VWS V14.01,2014-01-09 09:17:00,
2014-01-09 03:22:00,-10.9,-14.9,30.33,SSE,153,0.0,6.0,82,0.00,,SKC,0.00,VWS V14.01,2014-01-09 09:22:00,
2014-01-09 03:27:00,-10.7,-14.7,30.32,SE,136,6.0,7.0,82,0.00,,SKC,0.00,VWS V14.01,2014-01-09 09:27:00,
2014-01-09 03:30:00,-10.4,-14.4,30.31,ESE,121,7.0,9.0,82,0.00,,SKC,0.00,VWS V14.01,2014-01-09 09:30:00,
2014-01-09 03:32:00,-10.4,-14.4,30.30,ESE,122,11.0,11.0,82,0.00,,SKC,0.00,VWS V14.01,2014-01-09 09:32:00,
2014-01-09 03:37:00,-10.1,-14.1,30.31,SE,128,2.0,12.0,82,0.00,,SKC,0.00,VWS V14.01,2014-01-09 09:37:00,
2014-01-09 03:42:00,-9.6,-13.6,30.33,SE,128,0.0,12.0,82,0.00,,SKC,0.00,VWS V14.01,2014-01-09 09:42:00,
2014-01-09 03:47:00,-9.4,-13.4,30.33,SE,128,0.0,12.0,82,0.00,,SKC,0.00,VWS V14.01,2014-01-09 09:47:00,
2014-01-09 03:52:00,-9.2,-12.9,30.32,SE,128,0.0,12.0,83,0.00,,SKC,0.00,VWS V14.01,2014-01-09 09:52:00,
2014-01-09 03:58:00,-8.9,-12.7,30.32,SE,128,4.0,12.0,83,0.00,,SKC,0.00,VWS V14.01,2014-01-09 09:58:00,
2014-01-09 04:00:00,-8.5,-12.3,30.32,SE,128,2.0,12.0,83,0.00,,SKC,0.00,VWS V14.01,2014-01-09 10:00:00,
2014-01-09 04:03:00,-8.4,-12.2,30.32,SE,128,5.0,5.0,83,0.00,,SKC,0.00,VWS V14.01,2014-01-09 10:03:00,
2014-01-09 04:08:00,-8.1,-11.9,30.31,SE,128,4.0,6.0,83,0.00,,SKC,0.00,VWS V14.01,2014-01-09 10:08:00,
2014-01-09 04:13:00,-7.9,-11.7,30.31,SE,128,1.0,8.0,83,0.00,,SKC,0.00,VWS V14.01,2014-01-09 10:13:00,
2014-01-09 04:18:00,-7.8,-11.6,30.31,SE,128,4.0,8.0,83,0.00,,SKC,0.00,VWS V14.01,2014-01-09 10:18:00,
2014-01-09 04:23:00,-7.7,-11.5,30.31,SE,128,4.0,8.0,83,0.00,,SKC,0.00,VWS V14.01,2014-01-09 10:23:00,
2014-01-09 04:28:00,-7.7,-11.5,30.31,SE,128,0.0,8.0,83,0.00,,SKC,0.00,VWS V14.01,2014-01-09 10:28:00,
2014-01-09 04:30:00,-7.6,-11.4,30.32,SE,128,0.0,8.0,83,0.00,,SKC,0.00,VWS V14.01,2014-01-09 10:30:00,
2014-01-09 04:33:00,-7.5,-11.3,30.32,SE,128,0.0,0.0,83,0.00,,SKC,0.00,VWS V14.01,2014-01-09 10:33:00,
2014-01-09 04:38:00,-7.3,-11.1,30.32,SE,128,0.0,0.0,83,0.00,,SKC,0.00,VWS V14.01,2014-01-09 10:38:00,
2014-01-09 04:43:00,-7.2,-11.0,30.31,SE,128,0.0,4.0,83,0.00,,SKC,0.00,VWS V14.01,2014-01-09 10:43:00,
2014-01-09 04:48:00,-7.1,-10.9,30.31,SE,128,0.0,4.0,83,0.00,,SKC,0.00,VWS V14.01,2014-01-09 10:48:00,
2014-01-09 04:53:00,-6.7,-10.5,30.31,SE,128,0.0,4.0,83,0.00,,SKC,0.00,VWS V14.01,2014-01-09 10:53:00,
2014-01-09 04:58:00,-6.5,-10.3,30.30,SE,128,2.0,6.0,83,0.00,,SKC,0.00,VWS V14.01,2014-01-09 10:58:00,
2014-01-09 05:00:00,-6.4,-10.2,30.30,SE,128,0.0,6.0,83,0.00,,SKC,0.00,VWS V14.01,2014-01-09 11:00:00,
2014-01-09 05:03:00,-6.3,-10.1,30.30,SE,128,2.0,2.0,83,0.00,,SKC,0.00,VWS V14.01,2014-01-09 11:03:00,
2014-01-09 05:08:00,-6.2,-9.8,30.30,SE,128,0.0,5.0,84,0.00,,SKC,0.00,VWS V14.01,2014-01-09 11:08:00,
2014-01-09 05:13:00,-6.0,-9.6,30.30,SE,128,0.0,5.0,84,0.00,,SKC,0.00,VWS V14.01,2014-01-09 11:13:00,
2014-01-09 05:18:00,-5.8,-9.4,30.29,SE,128,0.0,5.0,84,0.00,,SKC,0.00,VWS V14.01,2014-01-09 11:18:00,
2014-01-09 05:23:00,-5.6,-9.2,30.28,SE,128,5.0,7.0,84,0.00,,SKC,0.00,VWS V14.01,2014-01-09 11:23:00,
2014-01-09 05:28:00,-5.4,-9.0,30.28,SE,129,5.0,11.0,84,0.00,,SKC,0.00,VWS V14.01,2014-01-09 11:28:00,
2014-01-09 05:30:00,-5.2,-8.8,30.28,SE,129,6.0,11.0,84,0.00,,SKC,0.00,VWS V14.01,2014-01-09 11:30:00,
2014-01-09 05:33:00,-5.2,-8.8,30.28,SE,130,7.0,8.0,84,0.00,,SKC,0.00,VWS V14.01,2014-01-09 11:33:00,
2014-01-09 05:38:00,-4.9,-8.5,30.27,SE,137,6.0,12.0,84,0.00,,SKC,0.00,VWS V14.01,2014-01-09 11:38:00,
2014-01-09 05:43:00,-4.8,-8.4,30.27,SE,132,8.0,12.0,84,0.00,,SKC,0.00,VWS V14.01,2014-01-09 11:43:00,
2014-01-09 05:48:00,-4.9,-8.5,30.27,SE,128,9.0,12.0,84,0.00,,SKC,0.00,VWS V14.01,2014-01-09 11:48:00,
2014-01-09 05:53:00,-4.9,-8.5,30.26,SE,130,11.0,13.0,84,0.00,,SKC,0.00,VWS V14.01,2014-01-09 11:53:00,
2014-01-09 05:58:00,-4.8,-8.4,30.25,ESE,123,9.0,13.0,84,0.00,,SKC,0.00,VWS V14.01,2014-01-09 11:58:00,
2014-01-09 06:00:00,-4.8,-8.4,30.25,SE,126,10.0,13.0,84,0.00,,SKC,0.00,VWS V14.01,2014-01-09 12:00:00,
2014-01-09 06:03:00,-4.8,-8.6,30.26,SE,126,11.0,15.0,83,0.00,,SKC,0.00,VWS V14.01,2014-01-09 12:03:00,
2014-01-09 06:08:00,-4.7,-8.3,30.25,ESE,123,15.0,15.0,84,0.00,,SKC,0.00,VWS V14.01,2014-01-09 12:08:00,
2014-01-09 06:13:00,-4.6,-8.4,30.24,SE,126,11.0,15.0,83,0.00,,SKC,0.00,VWS V14.01,2014-01-09 12:13:00,
2014-01-09 06:18:00,-4.4,-8.2,30.24,SE,129,9.0,15.0,83,0.00,,SKC,0.00,VWS V14.01,2014-01-09 12:18:00,
2014-01-09 06:23:00,-4.1,-7.9,30.24,SE,133,14.0,15.0,83,0.00,,SKC,0.00,VWS V14.01,2014-01-09 12:23:00,
2014-01-09 06:28:00,-3.9,-7.8,30.25,SE,132,9.0,15.0,83,0.00,,SKC,0.00,VWS V14.01,2014-01-09 12:28:00,
2014-01-09 06:30:00,-3.8,-7.7,30.24,SE,132,11.0,15.0,83,0.00,,SKC,0.00,VWS V14.01,2014-01-09 12:30:00,
2014-01-09 06:33:00,-3.7,-7.6,30.25,SE,133,2.0,11.0,83,0.00,,SKC,0.00,VWS V14.01,2014-01-09 12:33:00,
2014-01-09 06:38:00,-3.5,-7.4,30.24,SE,136,6.0,11.0,83,0.00,,SKC,0.00,VWS V14.01,2014-01-09 12:38:00,
2014-01-09 06:43:00,-3.2,-7.1,30.24,SE,136,5.0,11.0,83,0.00,,SKC,0.00,VWS V14.01,2014-01-09 12:43:00,
2014-01-09 06:48:00,-3.0,-6.9,30.24,SE,139,10.0,13.0,83,0.00,,SKC,0.00,VWS V14.01,2014-01-09 12:48:00,
2014-01-09 06:54:00,-2.7,-6.6,30.24,SE,141,8.0,13.0,83,0.00,,SKC,0.00,VWS V14.01,2014-01-09 12:54:00,
2014-01-09 06:59:00,-2.5,-6.4,30.24,SE,142,5.0,13.0,83,0.00,,SKC,0.00,VWS V14.01,2014-01-09 12:59:00,
2014-01-09 07:00:00,-2.3,-6.4,30.23,SE,144,2.0,13.0,82,0.00,,SKC,0.00,VWS V14.01,2014-01-09 13:00:00,
2014-01-09 07:04:00,-2.2,-6.3,30.24,SE,145,8.0,10.0,82,0.00,,SKC,0.00,VWS V14.01,2014-01-09 13:04:00,
2014-01-09 07:09:00,-2.1,-6.2,30.23,SE,146,7.0,11.0,82,0.00,,SKC,0.00,VWS V14.01,2014-01-09 13:09:00,
2014-01-09 07:14:00,-1.8,-5.9,30.23,SE,146,5.0,11.0,82,0.00,,SKC,0.00,VWS V14.01,2014-01-09 13:14:00,
2014-01-09 07:19:00,-1.7,-6.1,30.23,SE,146,4.0,11.0,81,0.00,,SKC,0.00,VWS V14.01,2014-01-09 13:19:00,
2014-01-09 07:24:00,-1.5,-5.9,30.23,SE,145,7.0,11.0,81,0.00,,SKC,0.00,VWS V14.01,2014-01-09 13:24:00,
2014-01-09 07:29:00,-1.3,-5.7,30.22,SE,145,6.0,11.0,81,0.00,,SKC,0.00,VWS V14.01,2014-01-09 13:29:00,
2014-01-09 07:30:00,-1.3,-6.0,30.23,SE,145,7.0,11.0,80,0.00,,SKC,0.00,VWS V14.01,2014-01-09 13:30:00,
2014-01-09 07:34:00,-1.2,-5.6,30.23,SE,145,9.0,9.0,81,0.00,,SKC,0.00,VWS V14.01,2014-01-09 13:34:00,
2014-01-09 07:39:00,-1.1,-5.8,30.22,SE,145,8.0,10.0,80,0.00,,SKC,0.00,VWS V14.01,2014-01-09 13:39:00,
2014-01-09 07:44:00,-1.0,-5.7,30.22,SE,145,4.0,11.0,80,0.00,,SKC,0.00,VWS V14.01,2014-01-09 13:44:00,
2014-01-09 07:49:00,-0.9,-5.6,30.22,SE,145,1.0,11.0,80,0.00,,SKC,0.00,VWS V14.01,2014-01-09 13:49:00,
2014-01-09 07:54:00,-0.7,-5.4,30.22,SE,146,1.0,11.0,80,0.00,,SKC,0.00,VWS V14.01,2014-01-09 13:54:00,
2014-01-09 07:59:00,-0.5,-5.2,30.22,SE,146,4.0,11.0,80,0.00,,SKC,0.00,VWS V14.01,2014-01-09 13:59:00,
2014-01-09 08:00:00,-0.4,-5.3,30.22,SE,146,5.0,11.0,79,0.00,,SKC,0.00,VWS V14.01,2014-01-09 14:00:00,
2014-01-09 08:04:00,-0.3,-5.0,30.22,SE,145,6.0,9.0,80,0.00,,SKC,0.00,VWS V14.01,2014-01-09 14:04:00,
2014-01-09 08:09:00,-0.2,-5.2,30.22,SSE,147,7.0,11.0,79,0.00,,SKC,0.00,VWS V14.01,2014-01-09 14:09:00,
2014-01-09 08:14:00,-0.1,-4.9,30.22,SSE,147,2.0,12.0,79,0.00,,SKC,0.00,VWS V14.01,2014-01-09 14:14:00,
2014-01-09 08:19:00,0.1,-4.8,30.21,SE,146,14.0,14.0,79,0.00,,SKC,0.00,VWS V14.01,2014-01-09 14:19:00,
2014-01-09 08:24:00,0.2,-5.0,30.22,SE,136,6.0,14.0,78,0.00,,SKC,0.00,VWS V14.01,2014-01-09 14:24:00,
2014-01-09 08:29:00,0.4,-4.8,30.21,SE,140,10.0,14.0,78,0.00,,SKC,0.00,VWS V14.01,2014-01-09 14:29:00,
2014-01-09 08:30:00,0.4,-4.8,30.21,SE,141,8.0,14.0,78,0.00,,SKC,0.00,VWS V14.01,2014-01-09 14:30:00,
2014-01-09 08:34:00,0.5,-4.7,30.21,SE,141,9.0,11.0,78,0.00,,SKC,0.00,VWS V14.01,2014-01-09 14:34:00,
2014-01-09 08:39:00,0.7,-4.5,30.21,SE,144,6.0,13.0,78,0.00,,SKC,0.00,VWS V14.01,2014-01-09 14:39:00,
2014-01-09 08:44:00,0.9,-4.3,30.21,SE,146,5.0,13.0,78,0.00,,SKC,0.00,VWS V14.01,2014-01-09 14:44:00,
2014-01-09 08:50:00,1.0,-4.2,30.21,SE,145,2.0,13.0,78,0.00,,SKC,0.00,VWS V14.01,2014-01-09 14:50:00,
2014-01-09 08:55:00,1.3,-4.0,30.21,SE,146,4.0,14.0,78,0.00,,SKC,0.00,VWS V14.01,2014-01-09 14:55:00,
2014-01-09 09:00:00,1.5,-4.0,30.20,SE,145,7.0,14.0,77,0.00,,SKC,0.00,VWS V14.01,2014-01-09 15:00:00,
2014-01-09 09:05:00,1.8,-3.7,30.21,SE,146,4.0,11.0,77,0.00,,SKC,0.00,VWS V14.01,2014-01-09 15:05:00,
2014-01-09 09:10:00,1.9,-3.6,30.20,SE,146,10.0,11.0,77,0.00,,SKC,0.00,VWS V14.01,2014-01-09 15:10:00,
2014-01-09 09:15:00,2.2,-3.3,30.19,SSE,148,10.0,14.0,77,0.00,,SKC,0.00,VWS V14.01,2014-01-09 15:15:00,
2014-01-09 09:20:00,2.3,-3.5,30.19,SSE,147,11.0,14.0,76,0.00,,SKC,0.00,VWS V14.01,2014-01-09 15:20:00,
2014-01-09 09:25:00,2.5,-3.3,30.19,SE,146,9.0,14.0,76,0.00,,SKC,0.00,VWS V14.01,2014-01-09 15:25:00,
2014-01-09 09:30:00,2.8,-3.0,30.19,SE,144,12.0,14.0,76,0.00,,SKC,0.00,VWS V14.01,2014-01-09 15:30:00,
2014-01-09 09:35:00,2.9,-2.9,30.18,SE,146,6.0,11.0,76,0.00,,SKC,0.00,VWS V14.01,2014-01-09 15:35:00,
2014-01-09 09:40:00,3.1,-3.0,30.18,SE,145,3.0,12.0,75,0.00,,SKC,0.00,VWS V14.01,2014-01-09 15:40:00,
2014-01-09 09:45:00,3.5,-2.6,30.18,SE,145,1.0,12.0,75,0.00,,SKC,0.00,VWS V14.01,2014-01-09 15:45:00,
2014-01-09 09:50:00,3.8,-2.3,30.18,SE,145,7.0,12.0,75,0.00,,SKC,0.00,VWS V14.01,2014-01-09 15:50:00,
2014-01-09 09:55:00,4.0,-2.4,30.18,SE,145,9.0,12.0,74,0.00,,SKC,0.00,VWS V14.01,2014-01-09 15:55:00,
2014-01-09 10:00:00,4.5,-1.9,30.17,SE,145,2.0,12.0,74,0.00,,SKC,0.00,VWS V14.01,2014-01-09 16:00:00,
2014-01-09 10:05:00,5.5,-1.0,30.18,SE,145,1.0,6.0,74,0.00,,SKC,0.00,VWS V14.01,2014-01-09 16:05:00,
2014-01-09 10:10:00,6.6,-0.2,30.17,SE,145,2.0,8.0,73,0.00,,SKC,0.00,VWS V14.01,2014-01-09 16:10:00,
2014-01-09 10:17:00,7.5,0.1,30.16,SE,146,8.0,14.0,71,0.00,,SKC,0.00,VWS V14.01,2014-01-09 16:17:00,
2014-01-09 10:22:00,8.0,0.3,30.17,SE,146,0.0,14.0,70,0.00,,SKC,0.00,VWS V14.01,2014-01-09 16:22:00,
2014-01-09 10:27:00,8.1,0.4,30.17,SE,146,0.0,14.0,70,0.00,,SKC,0.00,VWS V14.01,2014-01-09 16:27:00,
2014-01-09 10:30:00,8.2,0.4,30.18,SE,146,0.0,14.0,70,0.00,,SKC,0.00,VWS V14.01,2014-01-09 16:30:00,
2014-01-09 10:33:00,8.3,0.9,30.17,SE,146,0.0,2.0,71,0.00,,SKC,0.00,VWS V14.01,2014-01-09 16:33:00,
2014-01-09 10:39:00,9.0,1.2,30.16,SE,146,6.0,10.0,70,0.00,,SKC,0.00,VWS V14.01,2014-01-09 16:39:00,
2014-01-09 10:46:00,9.2,1.1,30.16,SE,146,0.0,10.0,69,0.00,,SKC,0.00,VWS V14.01,2014-01-09 16:46:00,
2014-01-09 10:52:00,9.6,1.5,30.15,SSE,148,0.0,10.0,69,0.00,,SKC,0.00,VWS V14.01,2014-01-09 16:52:00,
2014-01-09 10:59:00,9.7,1.6,30.15,SSE,148,1.0,10.0,69,0.00,,SKC,0.00,VWS V14.01,2014-01-09 16:59:00,
2014-01-09 11:00:00,9.8,1.7,30.15,SSE,148,0.0,10.0,69,0.00,,SKC,0.00,VWS V14.01,2014-01-09 17:00:00,
2014-01-09 11:06:00,9.9,1.8,30.14,SSE,148,1.0,5.0,69,0.00,,SKC,0.00,VWS V14.01,2014-01-09 17:06:00,
2014-01-09 11:12:00,9.9,1.8,30.14,SE,146,1.0,11.0,69,0.00,,SKC,0.00,VWS V14.01,2014-01-09 17:12:00,
2014-01-09 11:21:00,9.6,1.2,30.14,SE,146,0.0,11.0,68,0.00,,SKC,0.00,VWS V14.01,2014-01-09 17:21:00,
2014-01-09 11:28:00,10.0,1.9,30.13,SSE,148,0.0,11.0,69,0.00,,SKC,0.00,VWS V14.01,2014-01-09 17:28:00,
2014-01-09 11:30:00,10.4,2.3,30.13,SSE,147,1.0,11.0,69,0.00,,SKC,0.00,VWS V14.01,2014-01-09 17:30:00,
2014-01-09 11:37:00,10.8,2.6,30.13,SSE,147,0.0,8.0,69,0.00,,SKC,0.00,VWS V14.01,2014-01-09 17:37:00,
2014-01-09 11:43:00,11.1,2.9,30.12,SSE,147,2.0,8.0,69,0.00,,SKC,0.00,VWS V14.01,2014-01-09 17:43:00,
2014-01-09 11:57:00,11.4,3.5,30.11,SSE,149,4.0,12.0,70,0.00,,SKC,0.00,VWS V14.01,2014-01-09 17:57:00,
2014-01-09 12:00:00,11.5,3.3,30.11,SSE,148,0.0,12.0,69,0.00,,SKC,0.00,VWS V14.01,2014-01-09 18:00:00,
2014-01-09 12:02:00,11.5,3.3,30.11,SSE,148,0.0,2.0,69,0.00,,SKC,0.00,VWS V14.01,2014-01-09 18:02:00,
2014-01-09 12:11:00,11.4,2.9,30.10,SSE,147,0.0,10.0,68,0.00,,SKC,0.00,VWS V14.01,2014-01-09 18:11:00,
2014-01-09 12:16:00,11.6,3.4,30.10,South,171,1.0,11.0,69,0.00,,SKC,0.00,VWS V14.01,2014-01-09 18:16:00,
2014-01-09 12:21:00,11.8,3.3,30.10,SSE,153,5.0,11.0,68,0.00,,SKC,0.00,VWS V14.01,2014-01-09 18:21:00,
2014-01-09 12:26:00,11.8,3.3,30.10,SSE,148,0.0,11.0,68,0.00,,SKC,0.00,VWS V14.01,2014-01-09 18:26:00,
2014-01-09 12:30:00,11.9,3.4,30.09,SSE,147,0.0,11.0,68,0.00,,SKC,0.00,VWS V14.01,2014-01-09 18:30:00,
2014-01-09 12:34:00,12.0,3.8,30.09,SSE,148,0.0,4.0,69,0.00,,SKC,0.00,VWS V14.01,2014-01-09 18:34:00,
2014-01-09 12:39:00,12.3,4.1,30.08,SSE,147,4.0,9.0,69,0.00,,SKC,0.00,VWS V14.01,2014-01-09 18:39:00,
2014-01-09 12:44:00,12.5,4.0,30.08,SE,144,2.0,11.0,68,0.00,,SKC,0.00,VWS V14.01,2014-01-09 18:44:00,
2014-01-09 12:49:00,12.4,3.9,30.08,SSE,149,4.0,13.0,68,0.00,,SKC,0.00,VWS V14.01,2014-01-09 18:49:00,
2014-01-09 12:54:00,12.5,4.0,30.07,SSE,148,0.0,13.0,68,0.00,,SKC,0.00,VWS V14.01,2014-01-09 18:54:00,
2014-01-09 13:00:00,12.7,4.5,30.07,SSE,148,9.0,13.0,69,0.00,,SKC,0.00,VWS V14.01,2014-01-09 19:00:00,
2014-01-09 13:05:00,13.0,4.4,30.07,SE,146,2.0,10.0,68,0.00,,SKC,0.00,VWS V14.01,2014-01-09 19:05:00,
2014-01-09 13:10:00,13.1,4.5,30.07,SSE,149,3.0,16.0,68,0.00,,SKC,0.00,VWS V14.01,2014-01-09 19:10:00,
2014-01-09 13:15:00,13.3,4.7,30.06,SE,146,7.0,16.0,68,0.00,,SKC,0.00,VWS V14.01,2014-01-09 19:15:00,
2014-01-09 13:25:00,13.8,5.2,30.05,SSE,150,11.0,16.0,68,0.00,,SKC,0.00,VWS V14.01,2014-01-09 19:25:00,
2014-01-09 13:30:00,14.0,5.4,30.05,SSE,150,7.0,16.0,68,0.00,,SKC,0.00,VWS V14.01,2014-01-09 19:30:00,
2014-01-09 13:37:00,14.2,5.6,30.05,SSE,149,5.0,14.0,68,0.00,,SKC,0.00,VWS V14.01,2014-01-09 19:37:00,
2014-01-09 13:42:00,14.4,5.8,30.05,SSE,148,5.0,15.0,68,0.00,,SKC,0.00,VWS V14.01,2014-01-09 19:42:00,
2014-01-09 13:51:00,14.6,6.0,30.04,SSE,150,4.0,15.0,68,0.00,,SKC,0.00,VWS V14.01,2014-01-09 19:51:00,
2014-01-09 13:58:00,14.7,6.4,30.04,SSE,148,3.0,15.0,69,0.00,,SKC,0.00,VWS V14.01,2014-01-09 19:58:00,
2014-01-09 14:00:00,14.9,6.6,30.04,SSE,148,6.0,15.0,69,0.00,,SKC,0.00,VWS V14.01,2014-01-09 20:00:00,
2014-01-09 14:04:00,14.9,6.6,30.03,SSE,149,6.0,13.0,69,0.00,,SKC,0.00,VWS V14.01,2014-01-09 20:04:00,
2014-01-09 14:09:00,15.1,7.1,30.03,SSE,149,0.0,13.0,70,0.00,,SKC,0.00,VWS V14.01,2014-01-09 20:09:00,
2014-01-09 14:15:00,15.4,7.4,30.03,SSE,149,4.0,13.0,70,0.00,,SKC,0.00,VWS V14.01,2014-01-09 20:15:00,
2014-01-09 14:22:00,15.5,7.5,30.02,SSE,151,5.0,14.0,70,0.00,,SKC,0.00,VWS V14.01,2014-01-09 20:22:00,
2014-01-09 14:27:00,15.5,7.8,30.02,SSE,147,9.0,14.0,71,0.00,,SKC,0.00,VWS V14.01,2014-01-09 20:27:00,
2014-01-09 14:30:00,15.4,7.7,30.02,SE,145,5.0,15.0,71,0.00,,SKC,0.00,VWS V14.01,2014-01-09 20:30:00,
2014-01-09 14:32:00,15.4,7.7,30.02,SE,145,5.0,15.0,71,0.00,,SKC,0.00,VWS V14.01,2014-01-09 20:32:00,
2014-01-09 14:37:00,15.4,7.7,30.02,SE,146,12.0,15.0,71,0.00,,SKC,0.00,VWS V14.01,2014-01-09 20:37:00,
2014-01-09 14:46:00,15.4,7.7,30.02,SE,146,7.0,15.0,71,0.00,,SKC,0.00,VWS V14.01,2014-01-09 20:46:00,
2014-01-09 14:53:00,15.3,7.6,30.01,SSE,148,7.0,16.0,71,0.00,,SKC,0.00,VWS V14.01,2014-01-09 20:53:00,
2014-01-09 14:59:00,15.3,7.9,30.01,SSE,150,5.0,16.0,72,0.00,,SKC,0.00,VWS V14.01,2014-01-09 20:59:00,
2014-01-09 15:00:00,15.4,8.0,30.01,SSE,148,8.0,16.0,72,0.00,,SKC,0.00,VWS V14.01,2014-01-09 21:00:00,
2014-01-09 15:07:00,15.6,8.5,30.00,SSE,147,7.0,15.0,73,0.00,,SKC,0.00,VWS V14.01,2014-01-09 21:07:00,
2014-01-09 15:13:00,16.2,9.1,30.00,SE,146,9.0,15.0,73,0.00,,SKC,0.00,VWS V14.01,2014-01-09 21:13:00,
2014-01-09 15:20:00,16.5,9.4,29.99,SSE,153,7.0,16.0,73,0.00,,SKC,0.00,VWS V14.01,2014-01-09 21:20:00,
2014-01-09 15:28:00,16.5,9.7,29.99,SSE,147,10.0,18.0,74,0.00,,SKC,0.00,VWS V14.01,2014-01-09 21:28:00,
2014-01-09 15:30:00,16.4,9.6,29.99,SE,132,10.0,18.0,74,0.00,,SKC,0.00,VWS V14.01,2014-01-09 21:30:00,
2014-01-09 15:36:00,16.3,9.8,29.99,SE,146,8.0,18.0,75,0.00,,SKC,0.00,VWS V14.01,2014-01-09 21:36:00,
2014-01-09 15:42:00,16.3,10.1,29.98,SSE,147,10.0,18.0,76,0.00,,SKC,0.00,VWS V14.01,2014-01-09 21:42:00,
2014-01-09 15:50:00,16.4,10.8,29.98,SSE,150,11.0,18.0,78,0.00,,SKC,0.00,VWS V14.01,2014-01-09 21:50:00,
2014-01-09 15:59:00,16.6,11.2,29.98,SE,145,11.0,18.0,79,0.00,,SKC,0.00,VWS V14.01,2014-01-09 21:59:00,
2014-01-09 16:00:00,16.6,11.2,29.98,SSE,148,10.0,18.0,79,0.00,,SKC,0.00,VWS V14.01,2014-01-09 22:00:00,
2014-01-09 16:05:00,16.6,11.2,29.98,SSE,153,4.0,14.0,79,0.00,,SKC,0.00,VWS V14.01,2014-01-09 22:05:00,
2014-01-09 16:10:00,16.7,11.3,29.97,SE,145,8.0,19.0,79,0.00,,SKC,0.00,VWS V14.01,2014-01-09 22:10:00,
2014-01-09 16:18:00,16.4,10.8,29.97,SE,143,3.0,19.0,78,0.00,,SKC,0.00,VWS V14.01,2014-01-09 22:18:00,
2014-01-09 16:28:00,16.1,10.8,29.97,SE,145,9.0,19.0,79,0.00,,SKC,0.00,VWS V14.01,2014-01-09 22:28:00,
2014-01-09 16:30:00,16.0,10.6,29.97,SE,145,9.0,19.0,79,0.00,,SKC,0.00,VWS V14.01,2014-01-09 22:30:00,
2014-01-09 16:34:00,16.0,10.6,29.97,SE,146,10.0,13.0,79,0.00,,SKC,0.00,VWS V14.01,2014-01-09 22:34:00,
2014-01-09 16:39:00,15.7,10.4,29.96,SE,132,12.0,14.0,79,0.00,,SKC,0.00,VWS V14.01,2014-01-09 22:39:00,
2014-01-09 16:47:00,15.4,9.8,29.96,SE,140,10.0,14.0,78,0.00,,SKC,0.00,VWS V14.01,2014-01-09 22:47:00,
2014-01-09 16:53:00,15.3,10.0,29.95,SSE,153,16.0,16.0,79,0.00,,SKC,0.00,VWS V14.01,2014-01-09 22:53:00,
2014-01-09 17:00:00,15.2,9.9,29.95,SSE,149,7.0,19.0,79,0.00,,SKC,0.00,VWS V14.01,2014-01-09 23:00:00,
2014-01-09 17:09:00,15.2,9.9,29.94,SE,144,7.0,13.0,79,0.00,,SKC,0.00,VWS V14.01,2014-01-09 23:09:00,
2014-01-09 17:18:00,15.2,9.9,29.94,SE,144,10.0,19.0,79,0.00,,SKC,0.00,VWS V14.01,2014-01-09 23:18:00,
2014-01-09 17:26:00,15.0,9.7,29.94,SE,130,12.0,19.0,79,0.00,,SKC,0.00,VWS V14.01,2014-01-09 23:26:00,
2014-01-09 17:30:00,14.3,8.7,29.94,SE,128,14.0,19.0,78,0.00,,SKC,0.00,VWS V14.01,2014-01-09 23:30:00,
2014-01-09 17:32:00,14.3,8.7,29.94,SE,128,14.0,19.0,78,0.00,,SKC,0.00,VWS V14.01,2014-01-09 23:32:00,
2014-01-09 17:42:00,13.3,7.7,29.93,SE,127,13.0,15.0,78,0.00,,SKC,0.00,VWS V14.01,2014-01-09 23:42:00,
2014-01-09 18:00:00,12.8,7.5,29.92,SE,139,11.0,15.0,79,0.00,,SKC,0.00,VWS V14.01,2014-01-10 00:00:00,
2014-01-09 18:21:00,12.4,7.4,29.92,SE,146,8.0,15.0,80,0.00,,SKC,0.00,VWS V14.01,2014-01-10 00:21:00,
2014-01-09 18:26:00,12.5,7.5,29.92,SE,146,9.0,15.0,80,0.00,,SKC,0.00,VWS V14.01,2014-01-10 00:26:00,
2014-01-09 18:30:00,12.6,7.6,29.92,SE,146,5.0,15.0,80,0.00,,SKC,0.00,VWS V14.01,2014-01-10 00:30:00,
2014-01-09 18:31:00,12.6,7.6,29.92,SE,146,8.0,15.0,80,0.00,,SKC,0.00,VWS V14.01,2014-01-10 00:31:00,
2014-01-09 18:36:00,12.7,7.7,29.92,SE,144,10.0,14.0,80,0.00,,SKC,0.00,VWS V14.01,2014-01-10 00:36:00,
2014-01-09 18:41:00,12.9,7.9,29.92,SE,146,2.0,14.0,80,0.00,,SKC,0.00,VWS V14.01,2014-01-10 00:41:00,
2014-01-09 18:46:00,13.0,8.3,29.92,SE,146,5.0,14.0,81,0.00,,SKC,0.00,VWS V14.01,2014-01-10 00:46:00,
2014-01-09 18:51:00,13.1,8.4,29.92,SE,144,8.0,15.0,81,0.00,,SKC,0.00,VWS V14.01,2014-01-10 00:51:00,
2014-01-09 18:56:00,13.2,8.5,29.92,SE,146,4.0,15.0,81,0.00,,SKC,0.00,VWS V14.01,2014-01-10 00:56:00,
2014-01-09 19:00:00,13.2,8.5,29.92,SE,146,7.0,15.0,81,0.00,,SKC,0.00,VWS V14.01,2014-01-10 01:00:00,
2014-01-09 19:01:00,13.2,8.5,29.92,SE,146,6.0,15.0,81,0.00,,SKC,0.00,VWS V14.01,2014-01-10 01:01:00,
2014-01-09 19:06:00,13.4,8.7,29.92,SE,145,9.0,11.0,81,0.00,,SKC,0.00,VWS V14.01,2014-01-10 01:06:00,
2014-01-09 19:11:00,13.5,8.8,29.91,SE,146,8.0,12.0,81,0.00,,SKC,0.00,VWS V14.01,2014-01-10 01:11:00,
2014-01-09 19:16:00,13.5,8.8,29.91,SE,146,10.0,12.0,81,0.00,,SKC,0.00,VWS V14.01,2014-01-10 01:16:00,
2014-01-09 19:21:00,13.4,8.7,29.91,SSE,148,8.0,12.0,81,0.00,,SKC,0.00,VWS V14.01,2014-01-10 01:21:00,
2014-01-09 19:26:00,13.5,8.8,29.91,SE,146,6.0,12.0,81,0.00,,SKC,0.00,VWS V14.01,2014-01-10 01:26:00,
2014-01-09 19:30:00,13.6,8.9,29.91,SE,146,2.0,12.0,81,0.00,,SKC,0.00,VWS V14.01,2014-01-10 01:30:00,
2014-01-09 19:31:00,13.6,8.9,29.91,SE,146,0.0,12.0,81,0.00,,SKC,0.00,VWS V14.01,2014-01-10 01:31:00,
2014-01-09 19:36:00,13.5,8.8,29.91,SE,146,4.0,6.0,81,0.00,,SKC,0.00,VWS V14.01,2014-01-10 01:36:00,
2014-01-09 19:41:00,13.5,8.8,29.91,SE,146,0.0,6.0,81,0.00,,SKC,0.00,VWS V14.01,2014-01-10 01:41:00,
2014-01-09 19:46:00,13.5,8.8,29.91,SE,146,2.0,6.0,81,0.00,,SKC,0.00,VWS V14.01,2014-01-10 01:46:00,
2014-01-09 19:51:00,13.5,8.8,29.91,SE,146,0.0,8.0,81,0.00,,SKC,0.00,VWS V14.01,2014-01-10 01:51:00,
2014-01-09 19:56:00,13.5,8.8,29.91,SE,146,1.0,8.0,81,0.00,,SKC,0.00,VWS V14.01,2014-01-10 01:56:00,
2014-01-09 20:00:00,13.5,8.8,29.91,SE,146,1.0,10.0,81,0.00,,SKC,0.00,VWS V14.01,2014-01-10 02:00:00,
2014-01-09 20:01:00,13.5,8.8,29.91,SE,146,5.0,8.0,81,0.00,,SKC,0.00,VWS V14.01,2014-01-10 02:01:00,
2014-01-09 20:06:00,13.6,9.1,29.90,SE,146,5.0,5.0,82,0.00,,SKC,0.00,VWS V14.01,2014-01-10 02:06:00,
2014-01-09 20:11:00,13.6,9.1,29.90,SE,146,1.0,6.0,82,0.00,,SKC,0.00,VWS V14.01,2014-01-10 02:11:00,
2014-01-09 20:16:00,13.7,9.2,29.90,SSE,147,0.0,9.0,82,0.00,,SKC,0.00,VWS V14.01,2014-01-10 02:16:00,
2014-01-09 20:21:00,13.7,9.2,29.90,SSE,147,0.0,9.0,82,0.00,,SKC,0.00,VWS V14.01,2014-01-10 02:21:00,
2014-01-09 20:26:00,13.7,9.2,29.90,SSE,147,0.0,9.0,82,0.00,,SKC,0.00,VWS V14.01,2014-01-10 02:26:00,
2014-01-09 20:30:00,13.7,9.2,29.90,SSE,147,0.0,9.0,82,0.00,,SKC,0.00,VWS V14.01,2014-01-10 02:30:00,
2014-01-09 20:31:00,13.7,9.2,29.90,SSE,147,2.0,9.0,82,0.00,,SKC,0.00,VWS V14.01,2014-01-10 02:31:00,
2014-01-09 20:36:00,13.7,9.5,29.90,SSE,147,3.0,8.0,83,0.00,,SKC,0.00,VWS V14.01,2014-01-10 02:36:00,
2014-01-09 20:41:00,13.7,9.5,29.89,SSE,147,4.0,8.0,83,0.00,,SKC,0.00,VWS V14.01,2014-01-10 02:41:00,
2014-01-09 20:46:00,13.7,9.5,29.90,SE,146,0.0,8.0,83,0.00,,SKC,0.00,VWS V14.01,2014-01-10 02:46:00,
2014-01-09 20:51:00,13.7,9.5,29.89,SE,146,2.0,8.0,83,0.00,,SKC,0.00,VWS V14.01,2014-01-10 02:51:00,
2014-01-09 20:57:00,13.7,9.8,29.89,SSE,147,4.0,8.0,84,0.00,,SKC,0.00,VWS V14.01,2014-01-10 02:57:00,
2014-01-09 21:00:00,13.8,9.9,29.89,SSE,147,0.0,8.0,84,0.00,,SKC,0.00,VWS V14.01,2014-01-10 03:00:00,
2014-01-09 21:02:00,13.8,9.9,29.89,SSE,147,0.0,8.0,84,0.00,,SKC,0.00,VWS V14.01,2014-01-10 03:02:00,
2014-01-09 21:07:00,13.7,9.8,29.89,SSE,147,0.0,5.0,84,0.00,,SKC,0.00,VWS V14.01,2014-01-10 03:07:00,
2014-01-09 21:12:00,13.7,9.8,29.88,SSE,147,0.0,6.0,84,0.00,,SKC,0.00,VWS V14.01,2014-01-10 03:12:00,
2014-01-09 21:17:00,13.6,9.9,29.89,SSE,147,0.0,8.0,85,0.00,,SKC,0.00,VWS V14.01,2014-01-10 03:17:00,
2014-01-09 21:22:00,13.6,9.9,29.88,SSE,147,2.0,10.0,85,0.00,,SKC,0.00,VWS V14.01,2014-01-10 03:22:00,
2014-01-09 21:27:00,13.7,10.0,29.88,SSE,147,1.0,10.0,85,0.00,,SKC,0.00,VWS V14.01,2014-01-10 03:27:00,
2014-01-09 21:30:00,13.7,10.3,29.88,SSE,147,2.0,10.0,86,0.00,,SKC,0.00,VWS V14.01,2014-01-10 03:30:00,
2014-01-09 21:32:00,13.6,10.2,29.88,SSE,147,2.0,2.0,86,0.00,,SKC,0.00,VWS V14.01,2014-01-10 03:32:00,
2014-01-09 21:37:00,13.6,10.2,29.88,SSE,147,5.0,6.0,86,0.00,,SKC,0.00,VWS V14.01,2014-01-10 03:37:00,
2014-01-09 21:42:00,13.6,10.2,29.88,SSE,147,4.0,7.0,86,0.00,,SKC,0.00,VWS V14.01,2014-01-10 03:42:00,
2014-01-09 21:47:00,13.6,10.5,29.88,SSE,147,0.0,7.0,87,0.00,,SKC,0.00,VWS V14.01,2014-01-10 03:47:00,
2014-01-09 21:52:00,13.6,10.5,29.88,SSE,147,0.0,9.0,87,0.00,,SKC,0.00,VWS V14.01,2014-01-10 03:52:00,
2014-01-09 21:57:00,13.6,10.5,29.88,SSE,147,1.0,9.0,87,0.00,,SKC,0.00,VWS V14.01,2014-01-10 03:57:00,
2014-01-09 22:00:00,13.8,10.9,29.88,SSE,147,5.0,9.0,88,0.00,,SKC,0.00,VWS V14.01,2014-01-10 04:00:00,
2014-01-09 22:02:00,13.8,10.9,29.87,SSE,147,1.0,5.0,88,0.00,,SKC,0.00,VWS V14.01,2014-01-10 04:02:00,
2014-01-09 22:07:00,13.9,11.0,29.87,SSE,147,6.0,9.0,88,0.00,,SKC,0.00,VWS V14.01,2014-01-10 04:07:00,
2014-01-09 22:12:00,14.0,11.1,29.86,SSE,147,0.0,9.0,88,0.00,,SKC,0.00,VWS V14.01,2014-01-10 04:12:00,
2014-01-09 22:17:00,14.2,11.6,29.87,SSE,147,6.0,9.0,89,0.00,,SKC,0.00,VWS V14.01,2014-01-10 04:17:00,
2014-01-09 22:22:00,14.2,11.3,29.87,SSE,147,0.0,9.0,88,0.00,,SKC,0.00,VWS V14.01,2014-01-10 04:22:00,
2014-01-09 22:27:00,14.2,11.6,29.87,SSE,147,0.0,9.0,89,0.00,,SKC,0.00,VWS V14.01,2014-01-10 04:27:00,
2014-01-09 22:30:00,14.2,11.6,29.86,SSE,147,0.0,9.0,89,0.00,,SKC,0.00,VWS V14.01,2014-01-10 04:30:00,
2014-01-09 22:32:00,14.2,11.6,29.86,SSE,147,0.0,0.0,89,0.00,,SKC,0.00,VWS V14.01,2014-01-10 04:32:00,
2014-01-09 22:37:00,14.2,11.6,29.87,SSE,147,3.0,5.0,89,0.00,,SKC,0.00,VWS V14.01,2014-01-10 04:37:00,
2014-01-09 22:42:00,14.1,11.5,29.87,SSE,147,0.0,5.0,89,0.00,,SKC,0.00,VWS V14.01,2014-01-10 04:42:00,
2014-01-09 22:47:00,14.1,11.5,29.86,SSE,147,1.0,6.0,89,0.00,,SKC,0.00,VWS V14.01,2014-01-10 04:47:00,
2014-01-09 22:52:00,14.0,11.4,29.86,SSE,147,1.0,8.0,89,0.00,,SKC,0.00,VWS V14.01,2014-01-10 04:52:00,
2014-01-09 22:57:00,14.0,11.6,29.86,SSE,147,1.0,9.0,90,0.00,,SKC,0.00,VWS V14.01,2014-01-10 04:57:00,
2014-01-09 23:00:00,14.1,11.7,29.86,SSE,147,4.0,9.0,90,0.00,,SKC,0.00,VWS V14.01,2014-01-10 05:00:00,
2014-01-09 23:01:00,14.1,11.7,29.86,SSE,147,0.0,9.0,90,0.00,,SKC,0.00,VWS V14.01,2014-01-10 05:01:00,
2014-01-09 23:02:00,14.1,11.7,29.86,SSE,147,2.0,4.0,90,0.00,,SKC,0.00,VWS V14.01,2014-01-10 05:02:00,
2014-01-09 23:04:00,14.1,11.7,29.86,SSE,147,0.0,7.0,90,0.00,,SKC,0.00,VWS V14.01,2014-01-10 05:04:00,
2014-01-09 23:07:00,14.2,11.8,29.86,SSE,147,1.0,10.0,90,0.00,,SKC,0.00,VWS V14.01,2014-01-10 05:07:00,
2014-01-09 23:08:00,14.3,11.9,29.85,SSE,147,6.0,10.0,90,0.00,,SKC,0.00,VWS V14.01,2014-01-10 05:08:00,
2014-01-09 23:13:00,14.4,12.0,29.85,SSE,147,3.0,10.0,90,0.00,,SKC,0.00,VWS V14.01,2014-01-10 05:13:00,
2014-01-09 23:18:00,14.6,12.2,29.85,SSE,147,3.0,10.0,90,0.00,,SKC,0.00,VWS V14.01,2014-01-10 05:18:00,
2014-01-09 23:23:00,14.9,12.8,29.85,SSE,147,0.0,10.0,91,0.00,,SKC,0.00,VWS V14.01,2014-01-10 05:23:00,
2014-01-09 23:24:00,15.0,12.9,29.85,SSE,147,1.0,10.0,91,0.00,,SKC,0.00,VWS V14.01,2014-01-10 05:24:00,
2014-01-09 23:29:00,15.2,13.1,29.85,SE,143,1.0,14.0,91,0.00,,SKC,0.00,VWS V14.01,2014-01-10 05:29:00,
2014-01-09 23:30:00,15.3,13.1,29.85,SE,143,4.0,14.0,91,0.00,,SKC,0.00,VWS V14.01,2014-01-10 05:30:00,
2014-01-09 23:34:00,15.4,13.2,29.84,SE,144,5.0,11.0,91,0.00,,SKC,0.00,VWS V14.01,2014-01-10 05:34:00,
2014-01-09 23:39:00,15.5,13.4,29.84,SE,144,4.0,11.0,91,0.00,,SKC,0.00,VWS V14.01,2014-01-10 05:39:00,
2014-01-09 23:44:00,15.7,13.5,29.83,SE,144,12.0,12.0,91,0.00,,SKC,0.00,VWS V14.01,2014-01-10 05:44:00,
2014-01-09 23:50:00,15.9,13.7,29.83,SE,140,0.0,12.0,91,0.00,,SKC,0.00,VWS V14.01,2014-01-10 05:50:00,
2014-01-09 23:55:00,16.0,13.8,29.83,SE,142,8.0,12.0,91,0.00,,SKC,0.00,VWS V14.01,2014-01-10 05:55:00,